Change the Weather History Date:

Friday, August 29, 2014

  Actual Average Record
Temperature  
Mean Temperature 62 °F -  
Max Temperature 68 °F 71 °F 91 °F (1996)
Min Temperature 59 °F 52 °F 40 °F (1965)
Degree Days  
Heating Degree Days 2    
Growing Degree Days 12 (Base 50)    
Moisture  
Dew Point 53 °F    
Average Humidity 75    
Maximum Humidity 87    
Minimum Humidity 60    
Precipitation  
Precipitation 0.01 in - - ()
Sea Level Pressure  
Sea Level Pressure 29.98 in    
Wind  
Wind Speed 3 mph (North)    
Max Wind Speed 8 mph    
Max Gust Speed -    
Visibility 10 miles    
Events Rain    
Averages and records for this station are not official NWS values.
T = Trace of Precipitation, MM = Missing Value Source: NWS Daily Summary

Daily Weather History Graph

Daily Weather History Graph

Search for Another Location

Airport or City:

Trip Planner

Search our weather history database for the weather conditions in past years. The results will help you decide how hot, cold, wet, or windy it might be!

Date:

Astronomy

Aug. 29, 2014 Rise Set
Actual Time 6:23 AM PDT 7:55 PM PDT
Civil Twilight 5:50 AM PDT 8:27 PM PDT
Nautical Twilight 5:11 AM PDT 9:07 PM PDT
Astronomical Twilight 4:28 AM PDT 9:49 PM PDT
Moon 10:38 AM PDT (8/29) 9:34 PM PDT (8/29)
Length of Visible Light 14h 37m
Length of Day
13h 32m
Waxing Crescent, 16% of the Moon is Illuminated
Aug 29
Waxing Crescent
Sep 2
First Quarter
Sep 8
Full
Sep 15
Last Quarter
Sep 23
New

Hourly Weather History & Observations

Time (PDT) Temp. Dew Point Humidity Pressure Visibility Wind Dir Wind Speed Gust Speed Precip Events Conditions
12:53 AM 59.0 °F 54.0 °F 83% 30.01 in 10.0 mi Calm Calm - N/A   Scattered Clouds
1:11 AM 59.0 °F 54.0 °F 83% 30.01 in 10.0 mi North 3.5 mph - N/A   Mostly Cloudy
1:53 AM 59.0 °F 53.1 °F 81% 30.00 in 10.0 mi NNW 3.5 mph - N/A   Overcast
2:53 AM 59.0 °F 53.1 °F 81% 29.99 in 10.0 mi North 4.6 mph - N/A   Overcast
3:53 AM 59.0 °F 52.0 °F 78% 29.99 in 10.0 mi NNE 4.6 mph - N/A   Overcast
4:20 AM 59.0 °F 52.0 °F 78% 30.00 in 10.0 mi NNE 5.8 mph - N/A   Overcast
4:27 AM 59.0 °F 52.0 °F 78% 30.00 in 10.0 mi Variable 3.5 mph - N/A   Overcast
4:53 AM 59.0 °F 50.0 °F 72% 29.99 in 10.0 mi Variable 3.5 mph - N/A   Overcast
5:53 AM 59.0 °F 48.9 °F 69% 29.97 in 10.0 mi NNE 4.6 mph - N/A   Overcast
6:53 AM 59.0 °F 48.9 °F 69% 29.98 in 10.0 mi NNE 3.5 mph - 0.00 in Rain Light Rain
7:53 AM 59.0 °F 46.9 °F 64% 29.99 in 10.0 mi North 4.6 mph - 0.00 in   Overcast
8:24 AM 59.0 °F 45.0 °F 60% 30.00 in 10.0 mi Calm Calm - N/A   Overcast
8:53 AM 59.0 °F 46.0 °F 62% 29.99 in 10.0 mi Variable 3.5 mph - N/A   Overcast
9:53 AM 60.1 °F 52.0 °F 75% 29.99 in 10.0 mi Calm Calm - N/A   Overcast
10:53 AM 59.0 °F 51.1 °F 75% 30.00 in 10.0 mi West 8.1 mph - N/A   Overcast
11:53 AM 59.0 °F 54.0 °F 83% 30.00 in 10.0 mi SW 3.5 mph - 0.00 in Rain Light Rain
12:53 PM 60.8 °F 55.4 °F 82% 30.01 in 10.0 mi Calm Calm - N/A   Overcast
1:48 PM 64.4 °F 55.4 °F 73% 30.00 in 10.0 mi South 5.8 mph - N/A   Overcast
1:53 PM 64.0 °F 55.9 °F 75% 30.00 in 10.0 mi Variable 3.5 mph - 0.00 in Rain Light Rain
2:53 PM 64.0 °F 57.0 °F 78% 29.99 in 10.0 mi Variable 3.5 mph - 0.00 in   Mostly Cloudy
3:53 PM 64.0 °F 57.0 °F 78% 29.98 in 10.0 mi Calm Calm - N/A   Overcast
4:53 PM 66.9 °F 54.0 °F 63% 29.97 in 10.0 mi South 5.8 mph - N/A   Overcast
5:53 PM 66.9 °F 54.0 °F 63% 29.96 in 10.0 mi Calm Calm - N/A   Overcast
6:53 PM 66.0 °F 55.0 °F 68% 29.95 in 10.0 mi North 4.6 mph - N/A   Mostly Cloudy
7:53 PM 64.4 °F 55.4 °F 73% 29.95 in 10.0 mi North 5.8 mph - N/A   Mostly Cloudy
8:53 PM 61.0 °F 57.0 °F 87% 29.96 in 5.0 mi North 3.5 mph - 0.01 in Rain Light Rain
9:53 PM 61.0 °F 57.0 °F 87% 29.95 in 10.0 mi North 4.6 mph - 0.00 in   Overcast
10:53 PM 59.0 °F 55.0 °F 87% 29.95 in 10.0 mi NW 4.6 mph - 0.00 in   Overcast
11:53 PM 59.0 °F 53.1 °F 81% 29.95 in 10.0 mi Calm Calm - 0.00 in   Mostly Cloudy